Weather History for LIVP - November, 2013

Change the Weather History Date:

Tuesday, November 5, 2013

  Actual Average Record
Temperature  
Mean Temperature 31 °F -  
Max Temperature 33 °F 33 °F 50 °F (2004)
Min Temperature 29 °F 25 °F 23 °F (2000)
Degree Days  
Heating Degree Days 34    
Moisture  
Dew Point 28 °F    
Average Humidity 86    
Maximum Humidity 93    
Minimum Humidity 63    
Precipitation  
Precipitation 0.00 in 0.06 in - ()
Sea Level Pressure  
Sea Level Pressure 29.45 in    
Wind  
Wind Speed 4 mph ()    
Max Wind Speed 17 mph    
Max Gust Speed -    
Visibility 3.2 miles    
Events Fog    
Averages and records for this station are not official NWS values.
T = Trace of Precipitation, MM = Missing Value Source: Averaged Metar Reports

Daily Weather History Graph

Daily Weather History Graph

Search for Another Location

Airport or City:

Trip Planner

Search our weather history database for the weather conditions in past years. The results will help you decide how hot, cold, wet, or windy it might be!

Date:

Astronomy

Nov. 05, 2013 Rise Set
Actual Time 7:02 AM CET 4:55 PM CET
Civil Twilight 6:30 AM CET 5:27 PM CET
Nautical Twilight 5:55 AM CET 6:03 PM CET
Astronomical Twilight 5:20 AM CET 6:38 PM CET
Moon 9:04 AM CET (11/5) 6:35 PM CET (11/5)
Length of Visible Light 10h 56m
Length of Day
9h 53m
Waxing Crescent, 5% of the Moon is Illuminated
Nov 5
Waxing Crescent
Nov 10
First Quarter
Nov 17
Full
Nov 25
Last Quarter
Dec 3
New

Hourly Weather History & Observations

Time (CET) Temp. Windchill Dew Point Humidity Pressure Visibility Wind Dir Wind Speed Gust Speed Precip Events Conditions
12:55 AM 32.0 °F 28.7 °F 30.2 °F 93% 29.42 in 0.4 mi SW 3.5 mph - N/A Fog Light Freezing Fog
1:00 AM 32 °F - 30 °F 89%  in 0 mi SW 3.5 mph - - Fog Heavy Fog
1:55 AM 32.0 °F 28.7 °F 30.2 °F 93% 29.39 in 0.4 mi SSW 3.5 mph - N/A Fog Fog
2:55 AM 32.0 °F 28.7 °F 30.2 °F 93% 29.39 in 0.6 mi SSW 3.5 mph - N/A Fog Fog
3:55 AM 30.2 °F 24.3 °F 28.4 °F 93% 29.39 in 0.0 mi SSW 5.8 mph - N/A Fog Light Freezing Fog
4:00 AM 31 °F - 29 °F 89%  in 0 mi SSW 5.8 mph - - Fog Heavy Fog
4:55 AM 30.2 °F 25.4 °F 28.4 °F 93% 29.39 in 0.0 mi SSW 4.6 mph - N/A Fog Light Freezing Fog
5:55 AM 30.2 °F 24.3 °F 28.4 °F 93% 29.39 in 0.4 mi West 5.8 mph - N/A Fog Light Freezing Fog
6:55 AM 30.2 °F 26.7 °F 28.4 °F 93% 29.39 in 6.2 mi North 3.5 mph - N/A   Partly Cloudy
7:00 AM 30 °F - 28 °F 87%  in 9 mi North 3.5 mph - - Fog Light Fog
7:55 AM 30.2 °F 24.3 °F 26.6 °F 86% 29.42 in 6.2 mi North 5.8 mph - N/A   Partly Cloudy
8:55 AM 30.2 °F 24.3 °F 26.6 °F 86% 29.42 in 6.2 mi North 5.8 mph - N/A   Partly Cloudy
9:55 AM 30.2 °F 24.3 °F 24.8 °F 80% 29.42 in - North 5.8 mph - N/A   Clear
10:00 AM 30 °F - 25 °F 74%  in 19 mi North 5.8 mph - -   Clear
10:55 AM 30.2 °F - 24.8 °F 80% 29.47 in 6.2 mi NW 2.3 mph - N/A   Partly Cloudy
11:55 AM 30.2 °F 26.7 °F 24.8 °F 80% 29.47 in 6.2 mi NW 3.5 mph - N/A   Partly Cloudy
12:55 PM 32.0 °F - 24.8 °F 75% 29.47 in 6.2 mi Calm Calm - N/A   Partly Cloudy
1:00 PM 32 °F - 24 °F 63%  in 44 mi Calm Calm - -   Scattered Clouds
1:55 PM 32.0 °F 25.6 °F 24.8 °F 75% 29.44 in 6.2 mi South 6.9 mph - N/A   Partly Cloudy
2:55 PM 32.0 °F 28.7 °F 26.6 °F 80% 29.44 in 6.2 mi SSW 3.5 mph - N/A   Mostly Cloudy
3:55 PM 32.0 °F - 26.6 °F 80% 29.47 in 6.2 mi SSW 2.3 mph - N/A   Scattered Clouds
4:00 PM 32 °F - 26 °F 71%  in 25 mi SSW 2.3 mph - -   Mostly Cloudy
4:55 PM 32.0 °F 28.7 °F 26.6 °F 80% 29.47 in 0.6 mi SSW 3.5 mph - N/A Fog Fog
5:55 PM 32.0 °F 28.7 °F 28.4 °F 87% 29.47 in 6.2 mi SSW 3.5 mph - N/A   Scattered Clouds
6:55 PM 32.0 °F - 28.4 °F 87% 29.47 in 0.0 mi SSW 2.3 mph - N/A Fog Light Freezing Fog
7:00 PM 31 °F - 29 °F 88%  in 0 mi SSW 2.3 mph - - Fog Heavy Fog
7:55 PM 32.0 °F 28.7 °F 30.2 °F 93% 29.50 in 0.1 mi South 3.5 mph - N/A Fog Light Freezing Fog
8:55 PM 32.0 °F 28.7 °F 28.4 °F 87% 29.50 in 0.0 mi South 3.5 mph - N/A Fog Light Freezing Fog
9:55 PM 30.2 °F 25.4 °F 28.4 °F 93% 29.50 in 0.4 mi South 4.6 mph - N/A Fog Light Freezing Fog
10:00 PM 31 °F - 29 °F 89%  in 0 mi South 4.6 mph - - Fog Heavy Fog
10:55 PM 30.2 °F 20.8 °F 28.4 °F 93% 29.50 in 0.0 mi SW 11.5 mph - N/A Fog Light Freezing Fog
11:55 PM 30.2 °F 18.5 °F 28.4 °F 93% 29.50 in 0.6 mi SW 17.3 mph - N/A Fog Light Freezing Fog